Weather History for KFET - September, 2012

Change the Weather History Date:

Sunday, September 23, 2012

  Actual Average Record
Temperature  
Mean Temperature 52 °F -  
Max Temperature 70 °F 72 °F 88 °F (1976)
Min Temperature 34 °F 45 °F 28 °F (1983)
Degree Days  
Heating Degree Days 14    
Growing Degree Days 2 (Base 50)    
Moisture  
Dew Point 32 °F    
Average Humidity 52    
Maximum Humidity 83    
Minimum Humidity 25    
Precipitation  
Precipitation 0.00 in - - ()
Sea Level Pressure  
Sea Level Pressure 30.28 in    
Wind  
Wind Speed 2 mph (SE)    
Max Wind Speed 8 mph    
Max Gust Speed -    
Visibility 10 miles    
Events      
Averages and records for this station are not official NWS values.
T = Trace of Precipitation, MM = Missing Value Source: NWS Daily Summary

Daily Weather History Graph

Daily Weather History Graph

Search for Another Location

Airport or City:

Trip Planner

Search our weather history database for the weather conditions in past years. The results will help you decide how hot, cold, wet, or windy it might be!

Date:

Astronomy

Sep. 23, 2012 Rise Set
Actual Time 7:15 AM CDT 7:20 PM CDT
Civil Twilight 6:47 AM CDT 7:48 PM CDT
Nautical Twilight 6:15 AM CDT 8:20 PM CDT
Astronomical Twilight 5:42 AM CDT 8:53 PM CDT
Moon 3:26 PM CDT (9/23) 12:24 AM CDT (9/23)
Length of Visible Light 13h 00m
Length of Day
12h 05m
First Quarter, 60% of the Moon is Illuminated
Sep 23
First Quarter
Sep 29
Full
Oct 8
Last Quarter
Oct 15
New
Oct 21
First Quarter

Hourly Weather History & Observations

Time (CDT) Temp. Windchill Dew Point Humidity Pressure Visibility Wind Dir Wind Speed Gust Speed Precip Events Conditions
12:15 AM 39.9 °F - 29.3 °F 66% 30.29 in 10.0 mi Calm Calm - N/A   Clear
12:35 AM 38.1 °F 34.6 °F 30.2 °F 73% 30.29 in 10.0 mi WNW 4.6 mph - N/A   Clear
12:55 AM 39.7 °F 37.6 °F 32.2 °F 74% 30.29 in 10.0 mi WNW 3.5 mph - N/A   Clear
1:15 AM 39.2 °F 37.0 °F 30.0 °F 70% 30.29 in 10.0 mi WNW 3.5 mph - N/A   Clear
1:35 AM 37.4 °F 34.9 °F 29.5 °F 73% 30.29 in 10.0 mi WNW 3.5 mph - N/A   Clear
1:55 AM 39.0 °F 35.7 °F 28.9 °F 67% 30.30 in 10.0 mi WNW 4.6 mph - N/A   Clear
2:15 AM 37.9 °F 34.4 °F 28.8 °F 70% 30.30 in 10.0 mi West 4.6 mph - N/A   Clear
2:35 AM 36.7 °F 34.1 °F 29.1 °F 74% 30.30 in 10.0 mi WNW 3.5 mph - N/A   Clear
2:55 AM 36.1 °F - 28.8 °F 75% 30.30 in 10.0 mi Calm Calm - N/A   Clear
3:15 AM 34.9 °F - 28.9 °F 79% 30.30 in 10.0 mi Calm Calm - N/A   Clear
3:35 AM 35.6 °F - 28.8 °F 76% 30.30 in 10.0 mi Calm Calm - N/A   Clear
3:55 AM 35.8 °F - 28.8 °F 76% 30.30 in 10.0 mi Calm Calm - N/A   Clear
4:15 AM 34.9 °F - 28.8 °F 78% 30.30 in 10.0 mi Calm Calm - N/A   Clear
4:35 AM 36.0 °F - 28.4 °F 74% 30.30 in 10.0 mi Calm Calm - N/A   Clear
4:55 AM 34.0 °F - 29.3 °F 83% 30.30 in 10.0 mi Calm Calm - N/A   Clear
5:15 AM 34.7 °F - 29.1 °F 80% 30.30 in 10.0 mi Calm Calm - N/A   Clear
5:35 AM 34.7 °F - 28.9 °F 79% 30.30 in 10.0 mi Calm Calm - N/A   Clear
5:55 AM 34.3 °F 31.4 °F 29.1 °F 81% 30.30 in 10.0 mi WNW 3.5 mph - N/A   Clear
6:15 AM 34.5 °F - 29.1 °F 81% 30.30 in 10.0 mi Calm Calm - N/A   Clear
6:35 AM 34.9 °F - 29.1 °F 79% 30.31 in 10.0 mi Calm Calm - N/A   Clear
6:55 AM 34.2 °F - 29.1 °F 82% 30.31 in 10.0 mi Calm Calm - N/A   Clear
7:15 AM 34.0 °F - 29.3 °F 83% 30.32 in 10.0 mi Calm Calm - N/A   Clear
7:35 AM 34.2 °F - 29.3 °F 82% 30.33 in 10.0 mi Calm Calm - N/A   Clear
7:55 AM 35.1 °F - 30.0 °F 82% 30.34 in 10.0 mi Calm Calm - N/A   Clear
8:15 AM 36.5 °F - 31.6 °F 83% 30.35 in 10.0 mi Calm Calm - N/A   Clear
8:35 AM 37.2 °F - 32.4 °F 83% 30.35 in 10.0 mi Calm Calm - N/A   Clear
8:55 AM 40.6 °F - 33.4 °F 75% 30.35 in 10.0 mi Calm Calm - N/A   Clear
9:15 AM 45.0 °F 42.6 °F 32.0 °F 60% 30.36 in 10.0 mi East 4.6 mph - N/A   Clear
9:35 AM 47.7 °F - 32.2 °F 55% 30.36 in 10.0 mi ESE 4.6 mph - N/A   Clear
9:55 AM 49.8 °F - 31.8 °F 50% 30.36 in 10.0 mi East 5.8 mph - N/A   Clear
10:15 AM 52.2 °F - 32.0 °F 46% 30.36 in 10.0 mi SE 5.8 mph - N/A   Clear
10:35 AM 53.6 °F - 32.2 °F 44% 30.36 in 10.0 mi ESE 3.5 mph - N/A   Clear
10:55 AM 55.4 °F - 31.6 °F 40% 30.36 in 10.0 mi SE 4.6 mph - N/A   Clear
11:15 AM 57.2 °F - 32.0 °F 38% 30.36 in 10.0 mi Calm Calm - N/A   Clear
11:35 AM 58.3 °F - 32.0 °F 37% 30.35 in 10.0 mi SE 4.6 mph - N/A   Clear
11:55 AM 59.9 °F - 32.2 °F 35% 30.35 in 10.0 mi Calm Calm - N/A   Clear
12:15 PM 62.1 °F - 32.2 °F 33% 30.34 in 10.0 mi East 4.6 mph - N/A   Clear
12:35 PM 62.6 °F - 31.8 °F 32% 30.33 in 10.0 mi Calm Calm - N/A   Clear
12:55 PM 64.0 °F - 30.2 °F 28% 30.32 in 10.0 mi South 4.6 mph - N/A   Clear
1:15 PM 65.7 °F - 29.8 °F 26% 30.31 in 10.0 mi East 5.8 mph - N/A   Clear
1:35 PM 64.9 °F - 29.7 °F 27% 30.30 in 10.0 mi Calm Calm - N/A   Clear
1:55 PM 66.4 °F - 30.2 °F 26% 30.29 in 10.0 mi SE 4.6 mph - N/A   Clear
2:15 PM 66.0 °F - 30.0 °F 26% 30.28 in 10.0 mi Calm Calm - N/A   Clear
2:35 PM 66.2 °F - 30.4 °F 26% 30.27 in 10.0 mi Calm Calm - N/A   Clear
2:55 PM 67.6 °F - 31.5 °F 26% 30.26 in 10.0 mi SSW 3.5 mph - N/A   Clear
3:15 PM 68.5 °F - 31.5 °F 25% 30.26 in 10.0 mi South 5.8 mph - N/A   Clear
3:35 PM 69.1 °F - 31.5 °F 25% 30.25 in 10.0 mi SE 4.6 mph - N/A   Clear
3:55 PM 69.4 °F - 32.0 °F 25% 30.24 in 10.0 mi East 5.8 mph - N/A   Clear
4:15 PM 68.9 °F - 31.8 °F 25% 30.23 in 10.0 mi SE 8.1 mph - N/A   Clear
4:35 PM 69.4 °F - 31.8 °F 25% 30.22 in 10.0 mi ESE 3.5 mph - N/A   Clear
4:55 PM 69.8 °F - 32.0 °F 25% 30.22 in 10.0 mi SE 3.5 mph - N/A   Clear
5:15 PM 69.3 °F - 32.0 °F 25% 30.21 in 10.0 mi East 4.6 mph - N/A   Clear
5:35 PM 69.1 °F - 32.2 °F 25% 30.21 in 10.0 mi SE 8.1 mph - N/A   Clear
5:55 PM 68.9 °F - 32.7 °F 26% 30.21 in 10.0 mi SSE 6.9 mph - N/A   Clear
6:15 PM 68.2 °F - 33.3 °F 27% 30.20 in 10.0 mi SSE 6.9 mph - N/A   Clear
6:35 PM 67.6 °F - 33.3 °F 28% 30.20 in 10.0 mi SE 6.9 mph - N/A   Clear
6:55 PM 65.8 °F - 33.4 °F 30% 30.20 in 10.0 mi ESE 5.8 mph - N/A   Clear
7:15 PM 63.9 °F - 33.8 °F 33% 30.20 in 10.0 mi ESE 5.8 mph - N/A   Clear
7:35 PM 62.4 °F - 33.8 °F 34% 30.20 in 10.0 mi ESE 5.8 mph - N/A   Clear
7:55 PM 60.8 °F - 34.2 °F 37% 30.20 in 10.0 mi East 5.8 mph - N/A   Clear
8:15 PM 59.2 °F - 34.3 °F 39% 30.21 in 10.0 mi ESE 5.8 mph - N/A   Clear
8:35 PM 58.5 °F - 34.5 °F 41% 30.21 in 10.0 mi ESE 4.6 mph - N/A   Clear
8:55 PM 57.2 °F - 34.7 °F 43% 30.21 in 10.0 mi ESE 6.9 mph - N/A   Clear
9:15 PM 56.7 °F - 34.9 °F 44% 30.21 in 10.0 mi ESE 4.6 mph - N/A   Clear
9:35 PM 55.4 °F - 34.9 °F 46% 30.21 in 10.0 mi ESE 4.6 mph - N/A   Clear
9:55 PM 54.9 °F - 35.1 °F 47% 30.21 in 10.0 mi SE 4.6 mph - N/A   Clear
10:15 PM 55.4 °F - 35.2 °F 47% 30.21 in 10.0 mi ESE 3.5 mph - N/A   Clear
10:35 PM 54.1 °F - 35.6 °F 50% 30.21 in 10.0 mi Calm Calm - N/A   Clear
10:55 PM 53.2 °F - 37.4 °F 55% 30.21 in 10.0 mi Calm Calm - N/A   Clear
11:15 PM 52.2 °F - 38.5 °F 60% 30.20 in 10.0 mi Calm Calm - N/A   Clear
11:35 PM 52.7 °F - 38.5 °F 58% 30.20 in 10.0 mi Calm Calm - N/A   Clear
11:55 PM 53.1 °F - 38.5 °F 58% 30.20 in 10.0 mi Calm Calm - N/A   Clear